SWA1247 KLIT-KMEM

Flight info

Callsign SWA1247
Flight time 0h 37m
Altitude 15000
Route HOBRK HOBRK4
Aircraft B738/M-SDE2E3FGHIRWXY/LB1

Departure

Time 2026-05-08 03:13
Airport Bill & Hillary Clinton National Airport/Adams Field (KLIT)

Arrival

Time 2026-05-08 03:51
Airport Memphis International Airport (KMEM)
Time Latitude Longitude Altitude Speed Heading
2026-05-08 02:56 34.73123 -92.21954 266 ft 0 kts 191°
2026-05-08 03:03 34.73129 -92.21953 257 ft 2 kts 194°
2026-05-08 03:03 34.73145 -92.21945 270 ft 3 kts 232°
2026-05-08 03:03 34.73151 -92.21926 266 ft 3 kts 276°
2026-05-08 03:03 34.73147 -92.21903 266 ft 2 kts 287°
2026-05-08 03:04 34.73144 -92.21892 266 ft 1 kts 287°
2026-05-08 03:04 34.73144 -92.21891 266 ft 0 kts 287°
2026-05-08 03:09 34.73146 -92.21897 266 ft 3 kts 294°
2026-05-08 03:09 34.73190 -92.21949 266 ft 13 kts 319°
2026-05-08 03:09 34.73238 -92.22059 266 ft 15 kts 292°
2026-05-08 03:10 34.73277 -92.22177 266 ft 15 kts 292°
2026-05-08 03:10 34.73354 -92.22206 266 ft 14 kts 42°
2026-05-08 03:10 34.73422 -92.22117 266 ft 16 kts 47°
2026-05-08 03:10 34.73512 -92.22000 266 ft 20 kts 46°
2026-05-08 03:11 34.73609 -92.21877 266 ft 20 kts 46°
2026-05-08 03:11 34.73689 -92.21776 266 ft 10 kts 46°
2026-05-08 03:11 34.73735 -92.21745 266 ft 1 kts 357°
2026-05-08 03:11 34.73741 -92.21747 266 ft 1 kts 343°
2026-05-08 03:12 34.73749 -92.21751 266 ft 2 kts 335°
2026-05-08 03:12 34.73782 -92.21803 265 ft 13 kts 287°
2026-05-08 03:12 34.73745 -92.21899 265 ft 14 kts 226°
2026-05-08 03:12 34.73538 -92.22162 265 ft 80 kts 226°
2026-05-08 03:13 34.73004 -92.22840 264 ft 143 kts 226°
2026-05-08 03:13 34.72223 -92.23846 513 ft 173 kts 226°
2026-05-08 03:13 34.71386 -92.24927 1306 ft 174 kts 224°
2026-05-08 03:13 34.70533 -92.26014 2027 ft 180 kts 224°
2026-05-08 03:14 34.69688 -92.27075 2898 ft 175 kts 225°
2026-05-08 03:14 34.68801 -92.28189 3344 ft 196 kts 226°
2026-05-08 03:14 34.67806 -92.29471 3547 ft 220 kts 226°
2026-05-08 03:14 34.66701 -92.30900 3732 ft 244 kts 227°
2026-05-08 03:15 34.65437 -92.32374 4017 ft 259 kts 213°
2026-05-08 03:15 34.63685 -92.32926 4580 ft 270 kts 176°
2026-05-08 03:15 34.61922 -92.32125 5338 ft 277 kts 144°
2026-05-08 03:15 34.60594 -92.30389 5983 ft 288 kts 121°
2026-05-08 03:16 34.59826 -92.28118 6640 ft 295 kts 99°
2026-05-08 03:16 34.59555 -92.25678 7387 ft 297 kts 92°
2026-05-08 03:16 34.59427 -92.23148 8120 ft 304 kts 91°
2026-05-08 03:16 34.59327 -92.20565 8868 ft 310 kts 91°
2026-05-08 03:17 34.59220 -92.17925 9663 ft 316 kts 92°
2026-05-08 03:17 34.59096 -92.15234 10424 ft 322 kts 92°
2026-05-08 03:17 34.58956 -92.12501 11190 ft 327 kts 93°
2026-05-08 03:17 34.58802 -92.09721 11950 ft 333 kts 94°
2026-05-08 03:18 34.58695 -92.07853 12474 ft 336 kts 94°
2026-05-08 03:18 34.58525 -92.05001 13283 ft 342 kts 94°
2026-05-08 03:18 34.58289 -92.01148 14303 ft 350 kts 94°
2026-05-08 03:18 34.58104 -91.98190 14775 ft 354 kts 94°
2026-05-08 03:19 34.57912 -91.95155 15021 ft 371 kts 95°
2026-05-08 03:19 34.57707 -91.91926 15021 ft 397 kts 95°
2026-05-08 03:19 34.57486 -91.88488 15025 ft 419 kts 95°
2026-05-08 03:19 34.57258 -91.84938 15023 ft 424 kts 95°
2026-05-08 03:20 34.57105 -91.82573 15019 ft 424 kts 95°
2026-05-08 03:20 34.56875 -91.79022 15011 ft 422 kts 95°
2026-05-08 03:20 34.56645 -91.75472 15013 ft 421 kts 95°
2026-05-08 03:20 34.56413 -91.71931 15019 ft 421 kts 95°
2026-05-08 03:21 34.56181 -91.68394 15023 ft 421 kts 95°
2026-05-08 03:21 34.55871 -91.63710 15028 ft 421 kts 95°
2026-05-08 03:21 34.55713 -91.61321 15029 ft 421 kts 95°
2026-05-08 03:21 34.55477 -91.57776 15028 ft 422 kts 95°
2026-05-08 03:22 34.55240 -91.54229 15027 ft 422 kts 95°
2026-05-08 03:22 34.55001 -91.50680 15031 ft 422 kts 95°
2026-05-08 03:22 34.54764 -91.47177 15028 ft 422 kts 95°
2026-05-08 03:22 34.54524 -91.43633 15024 ft 422 kts 95°
2026-05-08 03:23 34.54282 -91.40074 15022 ft 422 kts 95°
2026-05-08 03:23 34.54039 -91.36524 15022 ft 422 kts 95°
2026-05-08 03:23 34.53797 -91.32984 15021 ft 422 kts 95°
2026-05-08 03:23 34.53552 -91.29432 15019 ft 422 kts 95°
2026-05-08 03:24 34.53307 -91.25887 15013 ft 422 kts 95°
2026-05-08 03:24 34.53060 -91.22341 15012 ft 422 kts 95°
2026-05-08 03:24 34.52813 -91.18799 15014 ft 422 kts 95°
2026-05-08 03:24 34.52569 -91.15305 15012 ft 422 kts 95°
2026-05-08 03:25 34.52317 -91.11716 15009 ft 422 kts 95°
2026-05-08 03:25 34.52069 -91.08217 15007 ft 422 kts 95°
2026-05-08 03:25 34.51818 -91.04672 15007 ft 420 kts 95°
2026-05-08 03:25 34.51571 -91.01205 14987 ft 406 kts 95°
2026-05-08 03:26 34.51339 -90.97960 14992 ft 396 kts 95°
2026-05-08 03:26 34.51104 -90.94694 14990 ft 383 kts 95°
2026-05-08 03:26 34.50875 -90.91514 14995 ft 372 kts 95°
2026-05-08 03:26 34.50655 -90.88455 14994 ft 358 kts 95°
2026-05-08 03:27 34.50441 -90.85507 14992 ft 344 kts 95°
2026-05-08 03:27 34.50234 -90.82668 14989 ft 332 kts 95°
2026-05-08 03:27 34.50067 -90.79918 14994 ft 324 kts 88°
2026-05-08 03:27 34.50554 -90.77273 15038 ft 336 kts 62°
2026-05-08 03:28 34.51807 -90.74770 15032 ft 360 kts 49°
2026-05-08 03:28 34.53381 -90.72266 15031 ft 384 kts 47°
2026-05-08 03:28 34.55037 -90.69708 15018 ft 388 kts 47°
2026-05-08 03:28 34.56662 -90.67164 14879 ft 374 kts 47°
2026-05-08 03:29 34.58215 -90.64691 14626 ft 360 kts 48°
2026-05-08 03:29 34.59694 -90.62313 14384 ft 346 kts 48°
2026-05-08 03:29 34.61110 -90.60024 14160 ft 333 kts 48°
2026-05-08 03:29 34.62478 -90.57811 13907 ft 322 kts 47°
2026-05-08 03:30 34.65241 -90.53738 13226 ft 306 kts 42°
2026-05-08 03:30 34.68064 -90.49986 12345 ft 301 kts 41°
2026-05-08 03:31 34.70846 -90.46263 11543 ft 294 kts 42°
2026-05-08 03:31 34.73539 -90.42572 10776 ft 289 kts 43°
2026-05-08 03:32 34.74880 -90.40785 10409 ft 283 kts 39°
2026-05-08 03:32 34.76238 -90.39069 10069 ft 280 kts 43°
2026-05-08 03:32 34.77283 -90.37135 9969 ft 273 kts 66°
2026-05-08 03:32 34.77588 -90.34856 9563 ft 276 kts 86°
2026-05-08 03:33 34.77597 -90.32544 9127 ft 277 kts 88°
2026-05-08 03:33 34.77580 -90.30219 8772 ft 274 kts 88°
2026-05-08 03:33 34.77558 -90.27920 8425 ft 270 kts 89°
2026-05-08 03:33 34.77535 -90.25643 8068 ft 267 kts 89°
2026-05-08 03:34 34.77512 -90.23406 7728 ft 264 kts 89°
2026-05-08 03:34 34.77488 -90.21227 7585 ft 252 kts 89°
2026-05-08 03:34 34.77464 -90.19115 7287 ft 248 kts 89°
2026-05-08 03:34 34.77442 -90.17056 6970 ft 246 kts 89°
2026-05-08 03:35 34.77427 -90.14990 8628 ft 242 kts 85°
2026-05-08 03:35 34.77461 -90.12926 10143 ft 248 kts 87°
2026-05-08 03:35 34.77444 -90.10733 9423 ft 265 kts 88°
2026-05-08 03:35 34.77420 -90.08488 9036 ft 265 kts 88°
2026-05-08 03:36 34.77394 -90.06262 8704 ft 262 kts 88°
2026-05-08 03:36 34.77369 -90.04060 8367 ft 259 kts 88°
2026-05-08 03:36 34.77346 -90.01882 8053 ft 256 kts 88°
2026-05-08 03:36 34.77269 -89.99803 7734 ft 254 kts 100°
2026-05-08 03:37 34.76557 -89.97859 7403 ft 252 kts 125°
2026-05-08 03:37 34.75528 -89.96185 7097 ft 249 kts 128°
2026-05-08 03:37 34.74460 -89.94533 6762 ft 247 kts 128°
2026-05-08 03:37 34.73393 -89.92903 6447 ft 245 kts 128°
2026-05-08 03:38 34.72349 -89.91312 6210 ft 238 kts 128°
2026-05-08 03:38 34.71320 -89.89746 5845 ft 237 kts 128°
2026-05-08 03:38 34.70297 -89.88191 5515 ft 234 kts 128°
2026-05-08 03:38 34.69284 -89.86652 5180 ft 232 kts 128°
2026-05-08 03:39 34.68279 -89.85129 4859 ft 230 kts 128°
2026-05-08 03:39 34.67295 -89.83640 4529 ft 228 kts 128°
2026-05-08 03:39 34.66305 -89.82143 4176 ft 227 kts 128°
2026-05-08 03:39 34.65320 -89.80653 3831 ft 225 kts 128°
2026-05-08 03:40 34.64343 -89.79175 3494 ft 224 kts 128°
2026-05-08 03:40 34.63339 -89.77742 3141 ft 223 kts 139°
2026-05-08 03:40 34.60505 -89.77297 2993 ft 228 kts 208°
2026-05-08 03:41 34.59332 -89.78582 2994 ft 232 kts 240°
2026-05-08 03:41 34.58875 -89.80435 3001 ft 230 kts 265°
2026-05-08 03:41 34.58762 -89.82373 2988 ft 230 kts 268°
2026-05-08 03:41 34.58706 -89.84311 2974 ft 229 kts 275°
2026-05-08 03:42 34.59225 -89.86093 2986 ft 225 kts 308°
2026-05-08 03:42 34.60398 -89.87321 2997 ft 223 kts 326°
2026-05-08 03:42 34.61706 -89.88347 2988 ft 225 kts 328°
2026-05-08 03:42 34.63035 -89.89365 2983 ft 226 kts 328°
2026-05-08 03:43 34.64372 -89.90384 2983 ft 227 kts 328°
2026-05-08 03:43 34.65714 -89.91402 2979 ft 228 kts 328°
2026-05-08 03:43 34.67040 -89.92408 2983 ft 228 kts 328°
2026-05-08 03:43 34.68385 -89.93427 2985 ft 228 kts 328°
2026-05-08 03:44 34.69730 -89.94445 2988 ft 228 kts 328°
2026-05-08 03:44 34.71074 -89.95462 2988 ft 228 kts 328°
2026-05-08 03:44 34.72417 -89.96480 2986 ft 227 kts 328°
2026-05-08 03:44 34.73759 -89.97496 2987 ft 227 kts 329°
2026-05-08 03:45 34.75232 -89.98105 2988 ft 226 kts 358°
2026-05-08 03:45 34.76801 -89.98113 2995 ft 226 kts 359°
2026-05-08 03:45 34.78374 -89.98157 2998 ft 227 kts 358°
2026-05-08 03:45 34.79935 -89.98202 2994 ft 228 kts 358°
2026-05-08 03:46 34.81520 -89.98240 2992 ft 228 kts 359°
2026-05-08 03:46 34.83101 -89.98332 2978 ft 228 kts 356°
2026-05-08 03:46 34.84692 -89.98303 2988 ft 227 kts
2026-05-08 03:46 34.86269 -89.98330 2983 ft 224 kts 358°
2026-05-08 03:47 34.87786 -89.98376 2968 ft 213 kts 359°
2026-05-08 03:47 34.89225 -89.98408 2919 ft 203 kts 359°
2026-05-08 03:47 34.90637 -89.98437 2663 ft 201 kts 359°
2026-05-08 03:47 34.92028 -89.98467 2390 ft 196 kts 359°
2026-05-08 03:48 34.93356 -89.98496 2128 ft 186 kts 359°
2026-05-08 03:48 34.94613 -89.98523 1880 ft 176 kts 359°
2026-05-08 03:48 34.95784 -89.98549 1672 ft 165 kts 360°
2026-05-08 03:48 34.96891 -89.98573 1442 ft 154 kts 359°
2026-05-08 03:49 34.97909 -89.98595 1271 ft 141 kts 360°
2026-05-08 03:49 34.98888 -89.98615 1069 ft 142 kts 360°
2026-05-08 03:49 34.99890 -89.98633 843 ft 147 kts 359°
2026-05-08 03:49 35.00901 -89.98656 648 ft 143 kts 358°
2026-05-08 03:50 35.01883 -89.98678 460 ft 138 kts 359°
2026-05-08 03:50 35.02844 -89.98699 336 ft 134 kts 359°
2026-05-08 03:50 35.03671 -89.98717 330 ft 99 kts 359°
2026-05-08 03:50 35.04217 -89.98728 326 ft 57 kts 359°
2026-05-08 03:51 35.04417 -89.98729 326 ft 17 kts
2026-05-08 03:51 35.04548 -89.98695 330 ft 18 kts 20°
2026-05-08 03:51 35.04637 -89.98633 329 ft 12 kts 39°
2026-05-08 03:51 35.04643 -89.98627 327 ft 0 kts 41°
2026-05-08 03:52 35.04645 -89.98624 330 ft 1 kts 41°
2026-05-08 03:52 35.04652 -89.98617 328 ft 4 kts 42°
2026-05-08 03:52 35.04683 -89.98563 329 ft 10 kts 75°
2026-05-08 03:52 35.04644 -89.98507 328 ft 10 kts 177°
2026-05-08 03:53 35.04573 -89.98506 327 ft 11 kts 179°
2026-05-08 03:53 35.04487 -89.98505 328 ft 13 kts 179°
2026-05-08 03:53 35.04395 -89.98503 328 ft 13 kts 179°
2026-05-08 03:53 35.04306 -89.98500 327 ft 13 kts 179°
2026-05-08 03:54 35.04204 -89.98499 328 ft 17 kts 179°
2026-05-08 03:54 35.04083 -89.98495 327 ft 17 kts 179°
2026-05-08 03:54 35.03964 -89.98494 328 ft 17 kts 179°
2026-05-08 03:54 35.03883 -89.98455 328 ft 13 kts 109°
2026-05-08 03:55 35.03882 -89.98347 330 ft 13 kts 90°
2026-05-08 03:55 35.03884 -89.98240 330 ft 13 kts 89°
2026-05-08 03:55 35.03885 -89.98117 329 ft 15 kts 89°
2026-05-08 03:55 35.03939 -89.98037 326 ft 14 kts 352°
2026-05-08 03:56 35.04018 -89.98104 330 ft 14 kts 327°
2026-05-08 03:56 35.04072 -89.98146 328 ft 5 kts 327°
2026-05-08 03:56 35.04104 -89.98128 327 ft 6 kts 39°
2026-05-08 03:56 35.04119 -89.98111 327 ft 1 kts 43°
2026-05-08 03:57 35.04121 -89.98110 327 ft 0 kts 43°